Tracking 31027 objects as of 19-Jul-2025
HD Live streaming from Space Station
objects crossing your sky now

STARLINK-2534

Track STARLINK-2534 now!
10-day predictions
STARLINK-2534 is classified as:


NORAD ID: 48311
Int'l Code: 2021-036AM
Perigee: 553.4 km
Apogee: 555.3 km
Inclination: 53.1 °
Period: 95.6 minutes
Semi major axis: 6925 km
RCS: Unknown
Launch date: April 29, 2021
Source: United States (US)
Launch site: AIR FORCE EASTERN TEST RANGE (AFETR)
Your satellite tracking list
DMSP 5D-2 F13 DEB
Track 1 satellite(s)




NASA's NSSDC Master Catalog

Two Line Element Set (TLE):
1 48311U 21036AM  25199.88324243  .00002550  00000-0  19008-3 0  9992
2 48311  53.0547  61.2188 0001382  88.6956 271.4191 15.06393102232939
Source of the keplerian elements: AFSPC